CW3860 Weather Reports


time (UTC)temp
C
wind
direction
speed
KPH
gust
KPH
rain 1hr
cm
rain 24hr
cm
rain mn
cm
humidity
%
barometer
mb
20260906040034 23 284 1.6 1.6 0.00 0.00 0.00 62 1017.9
20260906035533 23 223 0.0 1.6 0.00 0.00 0.00 62 1017.7
20260906035034 23 223 0.0 1.6 0.00 0.00 0.00 62 1017.7
20260906034534 23 223 0.0 1.6 0.00 0.00 0.00 62 1017.6
20260906034034 23 223 0.0 3.2 0.00 0.00 0.00 63 1017.6
20260906033534 23 223 0.0 1.6 0.00 0.00 0.00 63 1017.5
20260906033034 23 223 0.0 0.0 0.00 0.00 0.00 63 1017.5
20260906032534 23 223 0.0 1.6 0.00 0.00 0.00 63 1017.4
20260906032034 23 223 1.6 3.2 0.00 0.00 0.00 63 1017.4
20260906031534 23 338 0.0 1.6 0.00 0.00 0.00 64 1017.3
20260906031034 23 338 1.6 1.6 0.00 0.00 0.00 64 1017.3
20260906030533 23 338 0.0 0.0 0.00 0.00 0.00 65 1017.2
20260906030034 23 337 0.0 0.0 0.00 0.00 0.00 64 1017.3
20260906025534 23 338 0.0 1.6 0.00 0.00 0.00 64 1017.2
20260906025034 23 338 0.0 4.8 0.00 0.00 0.00 64 1017.3
20260906024534 23 315 0.0 0.0 0.00 0.00 0.00 65 1017.2
20260906024034 24 315 0.0 3.2 0.00 0.00 0.00 65 1017.2
20260906023534 24 315 0.0 0.0 0.00 0.00 0.00 65 1017.2
20260906023034 24 315 0.0 0.0 0.00 0.00 0.00 65 1017.2
20260906022534 23 315 0.0 0.0 0.00 0.00 0.00 65 1017.2
20260906022034 23 315 0.0 1.6 0.00 0.00 0.00 65 1017.2
20260906021534 23 315 0.0 0.0 0.00 0.00 0.00 65 1017.2
20260906021034 23 315 0.0 1.6 0.00 0.00 0.00 64 1017.2
20260906020531 24 315 0.0 3.2 0.00 0.00 0.00 64 1017.1
20260906020030 24 316 1.6 3.2 0.00 0.00 0.00 63 1017.1
20260906015531 24 319 1.6 1.6 0.00 0.00 0.00 63 1017.2
20260906015030 25 319 0.0 1.6 0.00 0.00 0.00 62 1017.2
20260906014531 25 320 0.0 3.2 0.00 0.00 0.00 62 1017.2
20260906014030 25 239 0.0 1.6 0.00 0.00 0.00 61 1017.2
20260906013530 25 205 0.0 1.6 0.00 0.00 0.00 61 1017.2
20260906013030 25 216 0.0 0.0 0.00 0.00 0.00 62 1017.2
20260906012531 25 216 0.0 1.6 0.00 0.00 0.00 62 1017.2
20260906012031 25 216 0.0 3.2 0.00 0.00 0.00 62 1017.2
20260906011534 24 226 1.6 1.6 0.00 0.00 0.00 63 1017.3
20260906011030 24 298 0.0 1.6 0.00 0.00 0.00 63 1017.3
20260906010530 24 298 0.0 1.6 0.00 0.00 0.00 63 1017.3
20260906010030 25 300 0.0 1.6 0.00 0.00 0.00 63 1017.2
20260906005531 25 299 0.0 1.6 0.00 0.00 0.00 63 1017.3
20260906005031 25 317 0.0 1.6 0.00 0.00 0.00 62 1017.2
20260906004530 25 317 1.6 3.2 0.00 0.00 0.00 62 1017.2
20260906004031 25 261 0.0 1.6 0.00 0.00 0.00 62 1017.1
20260906003531 25 261 0.0 1.6 0.00 0.00 0.00 62 1017.1
20260906003030 25 341 0.0 1.6 0.00 0.00 0.00 62 1017.1
20260906002530 25 341 0.0 1.6 0.00 0.00 0.00 61 1017.1
20260906002033 26 341 0.0 1.6 0.00 0.00 0.00 60 1017.2
20260906001531 26 341 0.0 1.6 0.00 0.00 0.00 60 1017.1
20260906001033 26 341 1.6 1.6 0.00 0.00 0.00 59 1017.2
20260906000531 26 98 0.0 1.6 0.00 0.00 0.00 58 1017.1
20260906000033 26 141 3.2 3.2 0.00 0.00 0.00 58 1017.1
20260905235531 25 121 1.6 4.8 0.00 0.00 0.00 59 1017.1
20260905235031 25 213 3.2 4.8 0.00 0.00 0.00 62 1017.2
20260905234531 25 194 3.2 4.8 0.00 0.00 0.00 63 1017.2
20260905234031 25 307 0.0 1.6 0.00 0.00 0.00 64 1017.2
20260905233531 25 307 0.0 1.6 0.00 0.00 0.00 64 1017.2
20260905233034 25 308 0.0 1.6 0.00 0.00 0.00 65 1017.2
20260905232532 25 307 0.0 3.2 0.00 0.00 0.00 65 1017.1
20260905232031 25 307 0.0 1.6 0.00 0.00 0.00 67 1017.1
20260905231534 25 308 0.0 1.6 0.00 0.00 0.00 68 1017.2
20260905231031 25 308 0.0 1.6 0.00 0.00 0.00 70 1017.2
20260905230531 25 307 0.0 1.6 0.00 0.00 0.00 70 1017.2
20260905230031 25 307 0.0 0.0 0.00 0.00 0.00 71 1017.2
20260905225531 25 308 0.0 0.0 0.00 0.00 0.00 71 1017.3
20260905225031 25 308 0.0 1.6 0.00 0.00 0.00 71 1017.3
20260905224531 25 307 0.0 1.6 0.00 0.00 0.00 72 1017.3
20260905224031 25 304 0.0 3.2 0.00 0.00 0.00 73 1017.3
20260905223531 25 300 0.0 1.6 0.00 0.00 0.00 74 1017.3
20260905223032 25 290 0.0 1.6 0.00 0.00 0.00 74 1017.3
20260905222534 26 263 0.0 1.6 0.00 0.00 0.00 75 1017.3
20260905222032 26 257 0.0 1.6 0.00 0.00 0.00 76 1017.3
20260905221531 26 257 0.0 1.6 0.00 0.00 0.00 76 1017.2
20260905221031 26 256 0.0 0.0 0.00 0.00 0.00 77 1017.1
20260905220532 26 281 0.0 0.0 0.00 0.00 0.00 77 1017.2
20260905220034 26 281 0.0 0.0 0.00 0.00 0.00 76 1017.2
20260905215534 26 281 0.0 1.6 0.00 0.00 0.00 76 1017.2
20260905215031 26 226 0.0 0.0 0.00 0.00 0.00 76 1017.1
20260905214531 26 229 0.0 1.6 0.00 0.00 0.00 77 1017.1
20260905214031 26 229 0.0 1.6 0.00 0.00 0.00 77 1017.1
20260905213532 26 229 1.6 3.2 0.00 0.00 0.00 78 1017.1
20260905213031 26 229 0.0 1.6 0.00 0.00 0.00 78 1017.2
20260905212531 26 229 0.0 1.6 0.00 0.00 0.00 79 1017.2
20260905212034 27 229 0.0 1.6 0.00 0.00 0.00 79 1017.2
20260905211531 27 229 0.0 1.6 0.00 0.00 0.00 79 1017.2
20260905211034 27 229 0.0 1.6 0.00 0.00 0.00 79 1017.2
20260905210532 27 229 0.0 1.6 0.00 0.00 0.00 79 1017.2
20260905210031 27 244 0.0 1.6 0.00 0.00 0.00 79 1017.2
20260905205532 26 256 0.0 0.0 0.00 0.00 0.00 79 1017.2
20260905205031 26 296 0.0 1.6 0.00 0.00 0.00 79 1017.2
20260905204531 26 246 0.0 1.6 0.00 0.00 0.00 79 1017.2
20260905204031 26 322 0.0 1.6 0.00 0.00 0.00 79 1017.2
20260905203531 26 321 0.0 1.6 0.00 0.00 0.00 79 1017.2
20260905203031 26 321 0.0 1.6 0.00 0.00 0.00 79 1017.2
20260905202531 26 321 1.6 1.6 0.00 0.00 0.00 79 1017.2
20260905202035 26 321 0.0 1.6 0.00 0.00 0.00 79 1017.1
20260905201531 26 321 1.6 3.2 0.00 0.00 0.00 79 1017.2
20260905201031 26 298 0.0 1.6 0.00 0.00 0.00 79 1017.1
20260905200532 26 298 0.0 1.6 0.00 0.00 0.00 79 1017.1
20260905200031 26 298 0.0 3.2 0.00 0.00 0.00 78 1017.0
20260905195531 27 325 1.6 3.2 0.00 0.00 0.00 78 1017.0
20260905195031 27 306 1.6 1.6 0.00 0.00 0.00 78 1016.9
20260905194531 27 302 1.6 1.6 0.00 0.00 0.00 79 1017.0
20260905194031 27 215 0.0 0.0 0.00 0.00 0.00 79 1016.9
20260905193532 28 215 0.0 0.0 0.00 0.00 0.00 79 1016.9
20260905193034 28 215 0.0 1.6 0.00 0.00 0.00 79 1016.9
20260905192531 28 215 0.0 0.0 0.00 0.00 0.00 78 1016.8
20260905192031 28 215 0.0 1.6 0.00 0.00 0.00 78 1016.8
20260905191532 28 215 0.0 1.6 0.00 0.00 0.00 78 1016.7
20260905191031 28 216 0.0 1.6 0.00 0.00 0.00 78 1016.7
20260905190532 28 216 0.0 1.6 0.00 0.00 0.00 77 1016.7
20260905190031 28 215 0.0 3.2 0.00 0.00 0.00 77 1016.7
20260905185531 28 202 0.0 0.0 0.00 0.00 0.00 77 1016.6
20260905185031 28 202 0.0 1.6 0.00 0.00 0.00 77 1016.6
20260905184534 28 202 0.0 1.6 0.00 0.00 0.00 77 1016.6
20260905184031 28 202 0.0 3.2 0.00 0.00 0.00 76 1016.5
20260905183531 28 210 0.0 0.0 0.00 0.00 0.00 76 1016.4
20260905183031 28 211 0.0 1.6 0.00 0.00 0.00 76 1016.4
20260905182531 28 210 0.0 0.0 0.00 0.00 0.00 76 1016.3
20260905182032 28 210 0.0 1.6 0.00 0.00 0.00 75 1016.3
20260905181531 28 209 0.0 1.6 0.00 0.00 0.00 75 1016.2
20260905181031 28 209 0.0 3.2 0.00 0.00 0.00 75 1016.2
20260905180531 28 191 0.0 3.2 0.00 0.00 0.00 76 1016.2
20260905180034 28 162 0.0 4.8 0.00 0.00 0.00 76 1016.2
20260905175531 29 101 3.2 4.8 0.00 0.00 0.00 76 1016.1
20260905175031 29 101 1.6 1.6 0.00 0.00 0.00 76 1016.1
20260905174532 29 86 0.0 1.6 0.00 0.00 0.00 75 1016.1
20260905174031 29 89 0.0 3.2 0.00 0.00 0.00 75 1016.0
20260905173534 29 121 0.0 3.2 0.00 0.00 0.00 74 1016.0
20260905173032 29 40 0.0 1.6 0.00 0.00 0.00 74 1016.0
20260905172532 29 65 0.0 1.6 0.00 0.00 0.00 74 1016.0
20260905172031 29 98 0.0 3.2 0.00 0.00 0.00 73 1016.0
20260905171532 30 112 0.0 4.8 0.00 0.00 0.00 73 1015.9
20260905171031 30 0 0.0 3.2 0.00 0.00 0.00 72 1016.0
20260905170534 30 355 1.6 3.2 0.00 0.00 0.00 72 1016.0
20260905170032 30 355 0.0 3.2 0.00 0.00 0.00 71 1016.0
20260905165531 30 5 0.0 3.2 0.00 0.00 0.00 71 1015.8
20260905165034 30 87 1.6 3.2 0.00 0.00 0.00 71 1015.9
20260905164532 30 98 1.6 3.2 0.00 0.00 0.00 70 1015.9
20260905164032 30 105 0.0 3.2 0.00 0.00 0.00 69 1015.7
20260905163532 30 140 0.0 4.8 0.00 0.00 0.00 69 1015.7
20260905163031 30 115 0.0 3.2 0.00 0.00 0.00 69 1015.8
20260905162532 30 117 0.0 6.4 0.00 0.00 0.00 67 1015.8
20260905162033 30 101 3.2 4.8 0.00 0.00 0.00 67 1015.8
20260905161532 30 13 1.6 3.2 0.00 0.00 0.00 66 1015.8
20260905161032 30 115 1.6 3.2 0.00 0.00 0.00 66 1015.8
20260905160532 30 104 1.6 3.2 0.00 0.00 0.00 66 1015.7
20260905160032 30 127 1.6 3.2 0.00 0.00 0.00 65 1015.8
20260905155532 30 94 0.0 4.8 0.00 0.00 0.00 65 1015.7
20260905155032 30 91 1.6 4.8 0.00 0.00 0.00 65 1015.7
20260905154532 30 103 1.6 3.2 0.00 0.00 0.00 65 1015.7
20260905154032 30 5 0.0 4.8 0.00 0.00 0.00 66 1015.7
20260905153535 30 0 1.6 3.2 0.00 0.00 0.00 66 1015.7
20260905153035 30 24 0.0 4.8 0.00 0.00 0.00 68 1015.7
20260905152532 30 108 1.6 4.8 0.00 0.00 0.00 67 1015.6
20260905152032 30 121 0.0 4.8 0.00 0.00 0.00 66 1015.6
20260905151532 31 113 1.6 4.8 0.00 0.00 0.00 67 1015.6
20260905151032 31 128 3.2 6.4 0.00 0.00 0.00 67 1015.6
20260905150535 31 94 3.2 6.4 0.00 0.00 0.00 67 1015.6
20260905150035 31 76 1.6 6.4 0.00 0.00 0.00 66 1015.5
20260905145532 31 80 4.8 6.4 0.00 0.00 0.00 66 1015.4
20260905145032 31 105 1.6 6.4 0.00 0.00 0.00 65 1015.5
20260905144532 31 126 3.2 6.4 0.00 0.00 0.00 63 1015.5
20260905144032 31 90 1.6 3.2 0.00 0.00 0.00 63 1015.6
20260905143532 31 37 1.6 4.8 0.00 0.00 0.00 62 1015.6
20260905143032 31 78 3.2 4.8 0.00 0.00 0.00 61 1015.5
20260905142532 31 65 1.6 4.8 0.00 0.00 0.00 62 1015.6
20260905142032 31 76 0.0 4.8 0.00 0.00 0.00 60 1015.7
20260905141532 31 91 1.6 6.4 0.00 0.00 0.00 60 1015.6
20260905141032 31 123 1.6 8.0 0.00 0.00 0.00 60 1015.6
20260905140535 31 90 4.8 8.0 0.00 0.00 0.00 62 1015.5
20260905140032 31 98 0.0 4.8 0.00 0.00 0.00 63 1015.5
20260905135532 31 122 1.6 9.7 0.00 0.00 0.00 64 1015.5
20260905135033 31 121 4.8 6.4 0.00 0.00 0.00 61 1015.6
20260905134532 31 79 3.2 6.4 0.00 0.00 0.00 62 1015.6
20260905134032 31 153 1.6 6.4 0.00 0.00 0.00 61 1015.7
20260905133532 31 123 0.0 6.4 0.00 0.00 0.00 61 1015.8
20260905133032 31 51 3.2 6.4 0.00 0.00 0.00 63 1015.8
20260905132532 31 91 3.2 6.4 0.00 0.00 0.00 63 1015.8
20260905132033 31 114 1.6 6.4 0.00 0.00 0.00 64 1015.8
20260905131535 31 122 1.6 8.0 0.00 0.00 0.00 65 1015.8
20260905131032 31 118 1.6 6.4 0.00 0.00 0.00 65 1015.8
20260905130532 31 136 1.6 4.8 0.00 0.00 0.00 65 1015.9
20260905130032 31 148 0.0 4.8 0.00 0.00 0.00 64 1016.0
20260905125535 31 90 3.2 4.8 0.00 0.00 0.00 65 1016.0
20260905125033 31 5 1.6 4.8 0.00 0.00 0.00 65 1016.0
20260905124532 31 299 1.6 4.8 0.00 0.00 0.00 63 1016.0
20260905124033 31 47 1.6 8.0 0.00 0.00 0.00 65 1016.0
20260905123533 31 67 4.8 4.8 0.00 0.00 0.00 65 1015.9
20260905123035 31 21 1.6 4.8 0.00 0.00 0.00 65 1015.9
20260905122532 31 86 3.2 4.8 0.00 0.00 0.00 65 1016.0
20260905122032 31 9 3.2 6.4 0.00 0.00 0.00 66 1016.1
20260905121532 31 5 3.2 6.4 0.00 0.00 0.00 64 1016.1
20260905121032 31 333 4.8 4.8 0.00 0.00 0.00 64 1016.2
20260905120532 31 306 3.2 4.8 0.00 0.00 0.00 64 1016.2
20260905120032 31 19 1.6 6.4 0.00 0.00 0.00 64 1016.2
20260905115533 31 106 1.6 4.8 0.00 0.00 0.00 63 1016.2
20260905115032 31 0 4.8 4.8 0.00 0.00 0.00 62 1016.2
20260905114532 31 110 1.6 6.4 0.00 0.00 0.00 62 1016.3
20260905114032 31 118 0.0 4.8 0.00 0.00 0.00 62 1016.2
20260905113532 31 155 3.2 4.8 0.00 0.00 0.00 63 1016.2
20260905113033 31 34 1.6 3.2 0.00 0.00 0.00 63 1016.3
20260905112535 31 17 1.6 4.8 0.00 0.00 0.00 64 1016.3
20260905112035 31 47 1.6 4.8 0.00 0.00 0.00 64 1016.2
20260905111532 31 161 1.6 4.8 0.00 0.00 0.00 65 1016.3
20260905111033 31 51 1.6 6.4 0.00 0.00 0.00 65 1016.3
20260905110533 31 26 0.0 6.4 0.00 0.00 0.00 64 1016.2
20260905110036 31 93 0.0 3.2 0.00 0.00 0.00 62 1016.2
20260905105532 31 13 1.6 4.8 0.00 0.00 0.00 61 1016.1
20260905105033 31 331 3.2 6.4 0.00 0.00 0.00 63 1016.1
20260905104532 31 292 3.2 8.0 0.00 0.00 0.00 63 1016.2
20260905104035 31 34 1.6 4.8 0.00 0.00 0.00 66 1016.1
20260905103533 31 96 0.0 8.0 0.00 0.00 0.00 68 1016.1
20260905103033 30 87 3.2 8.0 0.00 0.00 0.00 67 1016.1
20260905102532 30 71 0.0 8.0 0.00 0.00 0.00 66 1016.1
20260905102033 30 175 3.2 8.0 0.00 0.00 0.00 66 1016.0
20260905101533 30 167 4.8 9.7 0.00 0.00 0.00 66 1016.1
20260905101032 30 109 8.0 8.0 0.00 0.00 0.00 65 1016.1
20260905100533 30 93 1.6 4.8 0.00 0.00 0.00 64 1016.2
20260905100036 31 99 3.2 8.0 0.00 0.00 0.00 65 1016.1
20260905095532 30 101 8.0 8.0 0.00 0.00 0.00 64 1016.1
20260905095033 30 88 4.8 6.4 0.00 0.00 0.00 64 1016.2
20260905094532 30 104 1.6 8.0 0.00 0.00 0.00 64 1016.3
20260905094033 30 118 3.2 9.7 0.00 0.00 0.00 64 1016.2
20260905093533 31 132 3.2 8.0 0.00 0.00 0.00 64 1016.1
20260905093033 30 111 3.2 8.0 0.00 0.00 0.00 64 1016.1
20260905092536 30 66 3.2 9.7 0.00 0.00 0.00 64 1016.2
20260905092033 30 105 4.8 8.0 0.00 0.00 0.00 66 1016.2
20260905091533 30 95 4.8 8.0 0.00 0.00 0.00 65 1016.2
20260905091033 30 86 6.4 9.7 0.00 0.00 0.00 64 1016.2
20260905090533 30 102 4.8 8.0 0.00 0.00 0.00 64 1016.3
20260905090033 30 83 3.2 8.0 0.00 0.00 0.00 63 1016.2
20260905085533 30 123 1.6 6.4 0.00 0.00 0.00 62 1016.3
20260905085033 30 135 6.4 6.4 0.00 0.00 0.00 61 1016.3
20260905084533 30 117 1.6 8.0 0.00 0.00 0.00 60 1016.2
20260905084033 30 90 3.2 8.0 0.00 0.00 0.00 59 1016.2
20260905083536 30 140 4.8 9.7 0.00 0.00 0.00 58 1016.2
20260905083034 30 110 1.6 4.8 0.00 0.00 0.00 58 1016.2
20260905082533 30 105 3.2 9.7 0.00 0.00 0.00 57 1016.2
20260905082033 30 103 3.2 8.0 0.00 0.00 0.00 57 1016.1
20260905081533 30 128 6.4 8.0 0.00 0.00 0.00 55 1016.1
20260905081033 30 141 3.2 6.4 0.00 0.00 0.00 54 1016.1
20260905080536 30 101 6.4 8.0 0.00 0.00 0.00 52 1016.1
20260905080033 30 87 1.6 4.8 0.00 0.00 0.00 55 1016.1
20260905075533 30 128 1.6 6.4 0.00 0.00 0.00 55 1016.1
20260905075033 30 95 0.0 6.4 0.00 0.00 0.00 57 1016.1
20260905074536 30 106 6.4 6.4 0.00 0.00 0.00 58 1016.0
20260905074033 30 141 3.2 6.4 0.00 0.00 0.00 59 1016.0
20260905073534 30 235 1.6 9.7 0.00 0.00 0.00 56 1015.9
20260905073034 30 102 6.4 9.7 0.00 0.00 0.00 50 1015.9
20260905072533 30 105 1.6 6.4 0.00 0.00 0.00 48 1015.9
20260905072033 30 91 1.6 3.2 0.00 0.00 0.00 50 1015.9
20260905071536 30 93 0.0 3.2 0.00 0.00 0.00 49 1015.9
20260905071033 30 99 0.0 1.6 0.00 0.00 0.00 47 1015.9
20260905070534 31 119 1.6 1.6 0.00 0.00 0.00 45 1015.9
20260905070033 31 119 0.0 1.6 0.00 0.00 0.00 45 1015.8
20260905065533 31 119 0.0 1.6 0.00 0.00 0.00 43 1015.9
20260905065034 31 126 1.6 3.2 0.00 0.00 0.00 44 1015.9
20260905064533 31 260 0.0 0.0 0.00 0.00 0.00 45 1015.9
20260905064036 31 260 0.0 1.6 0.00 0.00 0.00 46 1015.9
20260905063534 30 260 0.0 1.6 0.00 0.00 0.00 46 1015.9
20260905063033 30 260 0.0 1.6 0.00 0.00 0.00 45 1015.8
20260905062533 29 260 1.6 1.6 0.00 0.00 0.00 46 1015.8
20260905062033 28 260 0.0 1.6 0.00 0.00 0.00 48 1015.7
20260905061533 28 260 0.0 1.6 0.00 0.00 0.00 49 1015.8
20260905061034 28 260 0.0 1.6 0.00 0.00 0.00 51 1015.7
20260905060533 27 260 0.0 1.6 0.00 0.00 0.00 54 1015.7
20260905060034 27 260 0.0 1.6 0.00 0.00 0.00 53 1015.7
20260905055533 26 260 0.0 1.6 0.00 0.00 0.00 53 1015.7
20260905055034 26 260 0.0 1.6 0.00 0.00 0.00 53 1015.7
20260905054533 26 259 0.0 1.6 0.00 0.00 0.00 53 1015.7
20260905054033 25 331 0.0 0.0 0.00 0.00 0.00 55 1015.7
20260905053533 25 330 0.0 1.6 0.00 0.00 0.00 53 1015.7
20260905053033 24 331 0.0 1.6 0.00 0.00 0.00 54 1015.7
20260905052533 24 331 1.6 1.6 0.00 0.00 0.00 55 1015.7
20260905052033 23 331 0.0 1.6 0.00 0.00 0.00 56 1015.6
20260905051533 23 331 0.0 1.6 0.00 0.00 0.00 57 1015.6
20260905051033 23 331 1.6 1.6 0.00 0.00 0.00 58 1015.5
20260905050534 23 331 0.0 3.2 0.00 0.00 0.00 59 1015.5
20260905050033 23 260 0.0 1.6 0.00 0.00 0.00 60 1015.6
20260905045533 22 260 0.0 1.6 0.00 0.00 0.00 59 1015.5
20260905045036 22 261 0.0 1.6 0.00 0.00 0.00 60 1015.5
20260905044534 22 261 0.0 0.0 0.00 0.00 0.00 60 1015.5
20260905044033 22 260 0.0 0.0 0.00 0.00 0.00 60 1015.5
20260905043534 22 261 0.0 1.6 0.00 0.00 0.00 60 1015.5
20260905043033 22 323 0.0 3.2 0.00 0.00 0.00 59 1015.5
20260905042533 23 331 0.0 3.2 0.00 0.00 0.00 59 1015.5
20260905042033 23 325 1.6 1.6 0.00 0.00 0.00 59 1015.4
20260905041533 23 325 0.0 1.6 0.00 0.00 0.00 59 1015.4
20260905041033 23 325 1.6 1.6 0.00 0.00 0.00 60 1015.4
20260905040534 23 325 0.0 1.6 0.00 0.00 0.00 60 1015.4